When you browse on this site, cookies collect data to enhance your experience and personalize the content and advertising you see.
Visit our Privacy Policy to learn more. By continuing to use the site, you agree to this use of cookies and data.
  • Em Portugal
  • Lista de países
  • Para 7 dias
  • Temperatura da água
  • Mapas de satélite
  • Mapa do tempo
  • Widgets de tempo
  • user-avatar
    Iniciar Sessão

    Previsão horária em Durres

    Hoje, 24 Maio, Sexta-feira

    Tempo Temperatura Precipitação Vento Pressão Humidade
    00:00 +15°C° 0 mm 1 m/s 758 mmHg 90%
    01:00 +15°C° 0 mm 1 m/s 758 mmHg 91%
    02:00 +14°C° 0.1 mm 1 m/s 758 mmHg 90%
    03:00 +14°C° 0.1 mm 1 m/s 758 mmHg 90%
    04:00 +14°C° 0.1 mm 2 m/s 758 mmHg 89%
    05:00 +15°C° 0.1 mm 2 m/s 758 mmHg 84%
    06:00 +17°C° 0.1 mm 2 m/s 758 mmHg 79%
    07:00 +19°C° 0 mm 3 m/s 757 mmHg 75%
    08:00 +20°C° 0 mm 2 m/s 757 mmHg 70%
    09:00 +21°C° 0 mm 2 m/s 757 mmHg 66%
    10:00 +23°C° 0 mm 1 m/s 757 mmHg 62%
    11:00 +24°C° 0 mm 2 m/s 757 mmHg 60%
    12:00 +24°C° 0 mm 3 m/s 757 mmHg 58%
    13:00 +25°C° 0 mm 4 m/s 757 mmHg 56%
    14:00 +23°C° 0.1 mm 4 m/s 757 mmHg 58%
    15:00 +23°C° 0.1 mm 4 m/s 757 mmHg 59%
    16:00 +22°C° 0.1 mm 4 m/s 757 mmHg 61%
    17:00 +21°C° 0 mm 3 m/s 757 mmHg 69%
    18:00 +19°C° 0 mm 2 m/s 757 mmHg 76%
    19:00 +18°C° 0 mm 1 m/s 757 mmHg 84%
    20:00 +18°C° 0 mm 1 m/s 758 mmHg 85%
    21:00 +18°C° 0 mm 1 m/s 758 mmHg 87%
    22:00 +16°C° 0 mm 1 m/s 759 mmHg 89%
    23:00 +16°C° 0 mm 1 m/s 759 mmHg 89%

    Amanhã, 25 Maio, Sábado

    Tempo Temperatura Precipitação Vento Pressão Humidade
    00:00 +16°C° 0 mm 2 m/s 759 mmHg 88%
    01:00 +15°C° 0 mm 2 m/s 759 mmHg 88%
    02:00 +15°C° 0 mm 2 m/s 759 mmHg 87%
    03:00 +15°C° 0 mm 2 m/s 759 mmHg 87%
    04:00 +14°C° 0 mm 3 m/s 759 mmHg 86%
    05:00 +16°C° 0 mm 3 m/s 759 mmHg 79%
    06:00 +18°C° 0 mm 3 m/s 759 mmHg 73%
    07:00 +20°C° 0 mm 3 m/s 759 mmHg 66%
    08:00 +21°C° 0 mm 2 m/s 759 mmHg 62%
    09:00 +23°C° 0 mm 2 m/s 760 mmHg 58%
    10:00 +24°C° 0 mm 2 m/s 760 mmHg 53%
    11:00 +25°C° 0 mm 2 m/s 760 mmHg 52%
    12:00 +25°C° 0 mm 2 m/s 760 mmHg 51%
    13:00 +26°C° 0 mm 2 m/s 760 mmHg 50%
    14:00 +25°C° 0 mm 2 m/s 759 mmHg 52%
    15:00 +25°C° 0 mm 2 m/s 759 mmHg 55%
    16:00 +25°C° 0 mm 2 m/s 759 mmHg 57%
    17:00 +23°C° 0 mm 2 m/s 759 mmHg 65%
    18:00 +21°C° 0 mm 1 m/s 759 mmHg 72%
    19:00 +19°C° 0 mm 1 m/s 760 mmHg 80%
    20:00 +19°C° 0 mm 1 m/s 760 mmHg 80%
    21:00 +19°C° 0 mm 1 m/s 760 mmHg 79%
    22:00 +18°C° 0 mm 2 m/s 760 mmHg 79%
    23:00 +17°C° 0 mm 2 m/s 760 mmHg 79%

    Depois de amanhã, 26 Maio, Domingo

    Tempo Temperatura Precipitação Vento Pressão Humidade
    00:00 +17°C° 0 mm 2 m/s 760 mmHg 79%
    01:00 +17°C° 0 mm 2 m/s 760 mmHg 79%
    02:00 +16°C° 0 mm 2 m/s 760 mmHg 79%
    03:00 +16°C° 0 mm 2 m/s 760 mmHg 78%
    04:00 +16°C° 0 mm 2 m/s 759 mmHg 77%
    05:00 +18°C° 0 mm 2 m/s 759 mmHg 71%
    06:00 +19°C° 0 mm 2 m/s 759 mmHg 64%
    07:00 +22°C° 0 mm 1 m/s 759 mmHg 58%
    08:00 +24°C° 0 mm 1 m/s 759 mmHg 52%
    09:00 +26°C° 0 mm 1 m/s 759 mmHg 46%
    10:00 +27°C° 0 mm 2 m/s 759 mmHg 40%
    11:00 +28°C° 0 mm 2 m/s 759 mmHg 42%
    12:00 +28°C° 0 mm 3 m/s 759 mmHg 44%
    13:00 +28°C° 0 mm 4 m/s 759 mmHg 46%
    14:00 +27°C° 0 mm 4 m/s 759 mmHg 49%
    15:00 +27°C° 0 mm 4 m/s 759 mmHg 52%
    16:00 +26°C° 0 mm 4 m/s 758 mmHg 55%
    17:00 +23°C° 0 mm 4 m/s 758 mmHg 61%
    18:00 +22°C° 0 mm 4 m/s 758 mmHg 67%
    19:00 +20°C° 0 mm 4 m/s 758 mmHg 74%
    20:00 +20°C° 0 mm 4 m/s 758 mmHg 72%
    21:00 +20°C° 0 mm 4 m/s 758 mmHg 70%
    22:00 +21°C° 0 mm 4 m/s 758 mmHg 68%
    23:00 +20°C° 0 mm 3 m/s 758 mmHg 69%

    27 Maio, Segunda-feira

    Tempo Temperatura Precipitação Vento Pressão Humidade
    00:00 +20°C° 0 mm 3 m/s 758 mmHg 70%
    01:00 +20°C° 0 mm 2 m/s 758 mmHg 71%
    02:00 +20°C° 0 mm 2 m/s 757 mmHg 72%
    03:00 +20°C° 0 mm 2 m/s 757 mmHg 74%
    04:00 +20°C° 0 mm 2 m/s 757 mmHg 75%
    05:00 +20°C° 0.1 mm 2 m/s 757 mmHg 75%
    06:00 +21°C° 0.1 mm 3 m/s 757 mmHg 76%
    07:00 +22°C° 0.1 mm 3 m/s 757 mmHg 77%
    08:00 +25°C° 0.1 mm 3 m/s 757 mmHg 69%
    09:00 +27°C° 0.1 mm 3 m/s 756 mmHg 62%
    10:00 +28°C° 0.1 mm 3 m/s 756 mmHg 55%
    11:00 +29°C° 0.4 mm 4 m/s 756 mmHg 53%
    12:00 +29°C° 0.4 mm 5 m/s 756 mmHg 50%
    13:00 +30°C° 0.4 mm 6 m/s 755 mmHg 48%
    14:00 +28°C° 0.2 mm 5 m/s 755 mmHg 56%
    15:00 +27°C° 0.2 mm 3 m/s 755 mmHg 63%
    16:00 +26°C° 0.2 mm 2 m/s 754 mmHg 71%
    17:00 +25°C° 0.1 mm 4 m/s 754 mmHg 74%
    18:00 +23°C° 0.1 mm 5 m/s 754 mmHg 76%
    19:00 +22°C° 0.1 mm 7 m/s 754 mmHg 79%
    20:00 +21°C° 0 mm 8 m/s 755 mmHg 80%
    21:00 +19°C° 0 mm 9 m/s 755 mmHg 82%
    22:00 +18°C° 0 mm 10 m/s 756 mmHg 83%
    23:00 +18°C° 0 mm 9 m/s 755 mmHg 83%

    28 Maio, Terça-feira

    Tempo Temperatura Precipitação Vento Pressão Humidade
    00:00 +17°C° 0 mm 8 m/s 755 mmHg 84%
    01:00 +17°C° 0 mm 8 m/s 755 mmHg 84%
    02:00 +17°C° 0.2 mm 8 m/s 755 mmHg 84%
    03:00 +17°C° 0.2 mm 8 m/s 755 mmHg 84%
    04:00 +16°C° 0.2 mm 8 m/s 755 mmHg 85%
    05:00 +18°C° 0.4 mm 9 m/s 756 mmHg 78%
    06:00 +19°C° 0.4 mm 9 m/s 756 mmHg 72%
    07:00 +22°C° 0.4 mm 9 m/s 756 mmHg 65%
    08:00 +23°C° 0.3 mm 10 m/s 756 mmHg 63%
    09:00 +23°C° 0.3 mm 10 m/s 756 mmHg 60%
    10:00 +24°C° 0.3 mm 11 m/s 756 mmHg 57%
    11:00 +24°C° 0.1 mm 11 m/s 756 mmHg 59%
    12:00 +24°C° 0.1 mm 11 m/s 756 mmHg 61%
    13:00 +26°C° 0.1 mm 12 m/s 756 mmHg 63%
    14:00 +24°C° 0 mm 11 m/s 756 mmHg 66%
    15:00 +23°C° 0 mm 11 m/s 756 mmHg 69%
    16:00 +23°C° 0 mm 11 m/s 756 mmHg 71%
    17:00 +22°C° 0 mm 10 m/s 757 mmHg 76%
    18:00 +19°C° 0 mm 10 m/s 757 mmHg 82%
    19:00 +18°C° 0 mm 9 m/s 757 mmHg 87%
    20:00 +18°C° 0 mm 9 m/s 757 mmHg 88%
    21:00 +17°C° 0 mm 8 m/s 758 mmHg 89%
    22:00 +17°C° 0 mm 8 m/s 758 mmHg 91%
    23:00 +17°C° 0 mm 7 m/s 758 mmHg 90%

    29 Maio, Quarta-feira

    Tempo Temperatura Precipitação Vento Pressão Humidade
    00:00 +17°C° 0 mm 7 m/s 758 mmHg 89%
    01:00 +16°C° 0 mm 6 m/s 758 mmHg 88%
    02:00 +16°C° 0 mm 6 m/s 758 mmHg 87%
    03:00 +16°C° 0 mm 6 m/s 759 mmHg 86%
    04:00 +16°C° 0 mm 6 m/s 759 mmHg 85%
    05:00 +17°C° 0 mm 6 m/s 759 mmHg 80%
    06:00 +20°C° 0 mm 6 m/s 759 mmHg 74%
    07:00 +21°C° 0 mm 5 m/s 760 mmHg 69%
    08:00 +22°C° 0 mm 6 m/s 760 mmHg 66%
    09:00 +24°C° 0 mm 6 m/s 760 mmHg 63%
    10:00 +26°C° 0 mm 7 m/s 760 mmHg 59%
    11:00 +26°C° 0 mm 7 m/s 760 mmHg 61%
    12:00 +26°C° 0 mm 7 m/s 760 mmHg 62%
    13:00 +26°C° 0 mm 7 m/s 760 mmHg 63%
    14:00 +26°C° 0 mm 6 m/s 760 mmHg 64%
    15:00 +26°C° 0 mm 6 m/s 760 mmHg 64%
    16:00 +25°C° 0 mm 5 m/s 760 mmHg 65%
    17:00 +23°C° 0 mm 4 m/s 760 mmHg 72%
    18:00 +21°C° 0 mm 4 m/s 761 mmHg 79%
    19:00 +20°C° 0 mm 3 m/s 761 mmHg 86%
    20:00 +19°C° 0 mm 3 m/s 761 mmHg 87%
    21:00 +19°C° 0 mm 3 m/s 761 mmHg 88%
    22:00 +18°C° 0 mm 3 m/s 762 mmHg 89%
    23:00 +18°C° 0 mm 3 m/s 762 mmHg 89%
    Mostrar mais